User: anonymous   Login
Location: Key Biscayne
(25.6930°N, 80.1630°W)
Time: 06:52:57
(UTC-04:00)
Language:

CZ-2D R/B - Orbit

View from above orbital plane
View from above orbital plane
View from above satellite
View from above satellite

Ground track
Ground track

The orbit data is extracted from the following two-line orbital elements,

1 28738U 05024B   17206.20824790 +.00000211 +00000-0 +16376-4 0  9998
2 28738 097.4943 242.3381 0010950 228.8842 131.1443 15.11181248661538
Epoch (UTC): 25 July 2017 04:59:52
Eccentricity: 0.0010950
inclination: 97.4943°
perigee height: 525 km
apogee height: 540 km
right ascension of ascending node: 242.3381°
argument of perigee: 228.8842°
revolutions per day: 15.11181248
mean anomaly at epoch: 131.1443°
orbit number at epoch: 66153

The dashed part of the orbit path shows where the satellite is in the earth's shadow,  

DLR